Location: Savignano sul Rubicone
(44.0950°N, 12.4090°E)
Time: 18:08:13
(UTC+01:00)

N. Korean satellite - Pass Details

Date: 29 October 2019
Orbit: 456 x 506 km, 97.2° (Epoch: 12 November)

Event Time Altitude Azimuth Distance (km) Brightness Sun altitude
Rises 05:06:18 0° 30° (NNE) 2,592 10.7 -17.8°
Reaches altitude 10° 05:09:04 10° 53° (NE) 1,711 10.1 -17.3°
Maximum altitude 05:11:22 16° 92° (E) 1,390 10.0 -16.9°
Drops below altitude 10° 05:13:40 10° 131° (SE) 1,712 10.1 -16.5°
Sets 05:16:25 0° 154° (SSE) 2,594 10.7 -16.0°
